When you browse on this site, cookies collect data to enhance your experience and personalize the content and advertising you see.
Visit our Privacy Policy to learn more. By continuing to use the site, you agree to this use of cookies and data.
  • In Austria
  • List of Countries
  • For 7 days
  • Water Temperature
  • Weather Map
  • News
  • Weather Widgets
  • user-avatar
    Login

    Hourly Weather Rzeszow

    Today, 25 May, Monday

    Time Temperature Precipitation Wind Pressure Humidity
    00:00 +8°C° 0 mm 3 mps 749 mmHg 92%
    01:00 +8°C° 0 mm 2 mps 749 mmHg 94%
    02:00 +8°C° 0.1 mm 2 mps 749 mmHg 94%
    03:00 +8°C° 0.1 mm 3 mps 749 mmHg 94%
    04:00 +9°C° 0.1 mm 3 mps 749 mmHg 94%
    05:00 +9°C° 0.1 mm 3 mps 749 mmHg 93%
    06:00 +10°C° 0.1 mm 3 mps 749 mmHg 91%
    07:00 +10°C° 0.1 mm 3 mps 749 mmHg 90%
    08:00 +10°C° 0.2 mm 4 mps 749 mmHg 89%
    09:00 +11°C° 0.2 mm 4 mps 749 mmHg 88%
    10:00 +11°C° 0.2 mm 4 mps 749 mmHg 88%
    11:00 +12°C° 0.2 mm 4 mps 749 mmHg 83%
    12:00 +13°C° 0.2 mm 5 mps 748 mmHg 79%
    13:00 +14°C° 0.2 mm 5 mps 748 mmHg 74%
    14:00 +14°C° 0.4 mm 4 mps 748 mmHg 74%
    15:00 +14°C° 0.4 mm 4 mps 748 mmHg 74%
    16:00 +14°C° 0.4 mm 3 mps 748 mmHg 75%
    17:00 +13°C° 0.3 mm 3 mps 748 mmHg 79%
    18:00 +13°C° 0.3 mm 2 mps 748 mmHg 84%
    19:00 +12°C° 0.3 mm 2 mps 748 mmHg 88%
    20:00 +10°C° 0.2 mm 2 mps 748 mmHg 90%
    21:00 +9°C° 0.2 mm 2 mps 749 mmHg 92%
    22:00 +8°C° 0.2 mm 2 mps 749 mmHg 94%
    23:00 +8°C° 0 mm 2 mps 749 mmHg 95%

    Tomorrow, 26 May, Tuesday

    Time Temperature Precipitation Wind Pressure Humidity
    00:00 +8°C° 0 mm 2 mps 749 mmHg 96%
    01:00 +7°C° 0 mm 2 mps 749 mmHg 96%
    02:00 +7°C° 0 mm 2 mps 749 mmHg 97%
    03:00 +6°C° 0 mm 2 mps 749 mmHg 97%
    04:00 +6°C° 0 mm 2 mps 749 mmHg 98%
    05:00 +8°C° 0.1 mm 2 mps 750 mmHg 95%
    06:00 +9°C° 0.1 mm 2 mps 750 mmHg 93%
    07:00 +11°C° 0.1 mm 3 mps 751 mmHg 91%
    08:00 +12°C° 0.3 mm 3 mps 751 mmHg 86%
    09:00 +14°C° 0.3 mm 3 mps 751 mmHg 81%
    10:00 +16°C° 0.3 mm 3 mps 751 mmHg 76%
    11:00 +17°C° 1 mm 4 mps 750 mmHg 74%
    12:00 +17°C° 1 mm 4 mps 750 mmHg 73%
    13:00 +17°C° 1 mm 5 mps 750 mmHg 72%
    14:00 +16°C° 0.7 mm 5 mps 750 mmHg 74%
    15:00 +16°C° 0.7 mm 5 mps 750 mmHg 76%
    16:00 +16°C° 0.7 mm 5 mps 750 mmHg 78%
    17:00 +15°C° 0.7 mm 4 mps 750 mmHg 82%
    18:00 +14°C° 0.7 mm 4 mps 750 mmHg 85%
    19:00 +12°C° 0.7 mm 3 mps 750 mmHg 89%
    20:00 +12°C° 0.2 mm 3 mps 750 mmHg 91%
    21:00 +11°C° 0.2 mm 3 mps 750 mmHg 94%
    22:00 +10°C° 0.2 mm 2 mps 751 mmHg 96%
    23:00 +10°C° 0 mm 2 mps 751 mmHg 96%

    Day after tomorrow, 27 May, Wednesday

    Time Temperature Precipitation Wind Pressure Humidity
    00:00 +9°C° 0 mm 2 mps 751 mmHg 97%
    01:00 +9°C° 0 mm 2 mps 750 mmHg 97%
    02:00 +8°C° 0 mm 2 mps 750 mmHg 97%
    03:00 +8°C° 0 mm 2 mps 751 mmHg 97%
    04:00 +8°C° 0 mm 2 mps 751 mmHg 98%
    05:00 +9°C° 0 mm 2 mps 751 mmHg 96%
    06:00 +11°C° 0 mm 3 mps 751 mmHg 94%
    07:00 +12°C° 0 mm 3 mps 751 mmHg 92%
    08:00 +13°C° 0.3 mm 3 mps 751 mmHg 87%
    09:00 +16°C° 0.3 mm 3 mps 751 mmHg 82%
    10:00 +17°C° 0.3 mm 3 mps 751 mmHg 77%
    11:00 +18°C° 0.9 mm 3 mps 750 mmHg 75%
    12:00 +18°C° 0.9 mm 4 mps 750 mmHg 73%
    13:00 +19°C° 0.9 mm 4 mps 750 mmHg 71%
    14:00 +19°C° 0.7 mm 4 mps 750 mmHg 72%
    15:00 +18°C° 0.7 mm 4 mps 750 mmHg 72%
    16:00 +18°C° 0.7 mm 4 mps 749 mmHg 73%
    17:00 +17°C° 0.2 mm 4 mps 749 mmHg 76%
    18:00 +16°C° 0.2 mm 3 mps 749 mmHg 80%
    19:00 +14°C° 0.2 mm 2 mps 749 mmHg 84%
    20:00 +13°C° 0 mm 2 mps 749 mmHg 85%
    21:00 +12°C° 0 mm 2 mps 749 mmHg 87%
    22:00 +11°C° 0 mm 1 mps 749 mmHg 89%
    23:00 +11°C° 0 mm 1 mps 749 mmHg 90%

    28 May, Thursday

    Time Temperature Precipitation Wind Pressure Humidity
    00:00 +10°C° 0 mm 1 mps 749 mmHg 92%
    01:00 +10°C° 0 mm 1 mps 749 mmHg 93%
    02:00 +9°C° 0 mm 2 mps 748 mmHg 93%
    03:00 +9°C° 0 mm 2 mps 748 mmHg 94%
    04:00 +9°C° 0 mm 2 mps 748 mmHg 95%
    05:00 +10°C° 0 mm 2 mps 748 mmHg 92%
    06:00 +12°C° 0 mm 2 mps 748 mmHg 90%
    07:00 +13°C° 0 mm 3 mps 748 mmHg 87%
    08:00 +14°C° 0.6 mm 3 mps 748 mmHg 83%
    09:00 +14°C° 0.6 mm 4 mps 747 mmHg 79%
    10:00 +15°C° 0.6 mm 4 mps 747 mmHg 75%
    11:00 +15°C° 1 mm 4 mps 747 mmHg 76%
    12:00 +15°C° 1 mm 5 mps 746 mmHg 76%
    13:00 +15°C° 1 mm 5 mps 746 mmHg 77%
    14:00 +15°C° 0.3 mm 5 mps 746 mmHg 73%
    15:00 +16°C° 0.3 mm 5 mps 746 mmHg 69%
    16:00 +16°C° 0.3 mm 5 mps 745 mmHg 65%
    17:00 +14°C° 0 mm 4 mps 745 mmHg 70%
    18:00 +13°C° 0 mm 4 mps 745 mmHg 75%
    19:00 +12°C° 0 mm 3 mps 745 mmHg 80%
    20:00 +10°C° 0 mm 3 mps 745 mmHg 84%
    21:00 +9°C° 0 mm 3 mps 745 mmHg 88%
    22:00 +8°C° 0 mm 2 mps 745 mmHg 92%
    23:00 +8°C° 0 mm 3 mps 745 mmHg 94%

    29 May, Friday

    Time Temperature Precipitation Wind Pressure Humidity
    00:00 +8°C° 0 mm 3 mps 745 mmHg 95%
    01:00 +8°C° 0 mm 3 mps 745 mmHg 96%
    02:00 +8°C° 0 mm 3 mps 745 mmHg 95%
    03:00 +8°C° 0 mm 3 mps 745 mmHg 93%
    04:00 +8°C° 0 mm 3 mps 745 mmHg 92%
    05:00 +7°C° 0 mm 4 mps 745 mmHg 89%
    06:00 +7°C° 0 mm 4 mps 745 mmHg 87%
    07:00 +8°C° 0 mm 5 mps 745 mmHg 84%
    08:00 +8°C° 0 mm 5 mps 745 mmHg 82%
    09:00 +8°C° 0 mm 5 mps 745 mmHg 80%
    10:00 +8°C° 0 mm 4 mps 745 mmHg 78%
    11:00 +10°C° 0 mm 4 mps 744 mmHg 74%
    12:00 +12°C° 0 mm 4 mps 744 mmHg 70%
    13:00 +13°C° 0 mm 3 mps 744 mmHg 66%
    14:00 +13°C° 0.1 mm 3 mps 744 mmHg 65%
    15:00 +13°C° 0.1 mm 3 mps 743 mmHg 64%
    16:00 +15°C° 0.1 mm 2 mps 743 mmHg 64%
    17:00 +14°C° 0 mm 2 mps 743 mmHg 69%
    18:00 +12°C° 0 mm 1 mps 743 mmHg 75%
    19:00 +10°C° 0 mm 0 mps 743 mmHg 80%
    20:00 +10°C° 0 mm 1 mps 743 mmHg 81%
    21:00 +10°C° 0 mm 1 mps 744 mmHg 83%
    22:00 +9°C° 0 mm 1 mps 744 mmHg 84%
    23:00 +8°C° 0 mm 1 mps 744 mmHg 86%

    30 May, Saturday

    Time Temperature Precipitation Wind Pressure Humidity
    00:00 +7°C° 0 mm 2 mps 744 mmHg 87%
    01:00 +6°C° 0 mm 2 mps 744 mmHg 88%
    02:00 +6°C° 0 mm 2 mps 744 mmHg 89%
    03:00 +6°C° 0 mm 2 mps 744 mmHg 89%
    04:00 +5°C° 0 mm 2 mps 744 mmHg 89%
    05:00 +7°C° 0 mm 2 mps 744 mmHg 84%
    06:00 +9°C° 0 mm 2 mps 744 mmHg 80%
    07:00 +12°C° 0 mm 2 mps 744 mmHg 75%
    08:00 +13°C° 0 mm 2 mps 744 mmHg 70%
    09:00 +15°C° 0 mm 2 mps 744 mmHg 65%
    10:00 +16°C° 0 mm 2 mps 744 mmHg 60%
    11:00 +17°C° 0 mm 2 mps 744 mmHg 59%
    12:00 +17°C° 0 mm 2 mps 743 mmHg 57%
    13:00 +19°C° 0 mm 1 mps 743 mmHg 56%
    14:00 +19°C° 0.2 mm 1 mps 743 mmHg 58%
    15:00 +19°C° 0.2 mm 1 mps 743 mmHg 61%
    16:00 +19°C° 0.2 mm 1 mps 743 mmHg 64%
    17:00 +16°C° 0.2 mm 1 mps 743 mmHg 70%
    18:00 +15°C° 0.2 mm 1 mps 743 mmHg 76%
    19:00 +14°C° 0.2 mm 1 mps 743 mmHg 82%
    20:00 +13°C° 0 mm 1 mps 743 mmHg 84%
    21:00 +12°C° 0 mm 1 mps 743 mmHg 86%
    22:00 +11°C° 0 mm 1 mps 743 mmHg 88%
    23:00 +10°C° 0 mm 1 mps 743 mmHg 90%
    Show more